Location: Untermarchtal
(48.2403°N, 9.6117°E)
Time: 09:17:51
(UTC+01:00)

N. Korean satellite - Visible Passes

Search period start: 24 February 2018 00:00
Search period end: 06 March 2018 00:00
Orbit: 459 x 514 km, 97.2° (Epoch: 23 February)

Date Brightness Start Highest point End Pass type
(mag) Time Alt. Az. Time Alt. Az. Time Alt. Az.
24 Feb 8.4 06:41:25 10° NNE 06:44:53 38° E 06:48:23 10° SSE visible
24 Feb 9.3 18:55:01 10° SSW 18:57:53 24° W 19:00:48 10° NW visible
25 Feb 9.7 06:18:06 10° NE 06:21:01 21° E 06:23:56 10° SE visible
25 Feb 7.9 18:30:39 10° S 18:34:00 45° W 18:37:25 10° NNW visible
26 Feb 10.5 05:55:29 10° ENE 05:57:03 12° E 05:58:37 10° ESE visible
27 Feb 10.1 19:18:24 10° WSW 19:20:16 14° W 19:22:10 10° WNW visible
28 Feb 9.2 18:53:23 10° SSW 18:56:18 25° W 18:59:18 10° NW visible
01 Mar 9.8 06:16:34 10° NE 06:19:29 21° E 06:22:23 10° SE visible
02 Mar 10.5 05:54:00 10° ENE 05:55:30 12° E 05:57:00 10° ESE visible
03 Mar 10.0 19:16:40 10° SW 19:18:40 14° W 19:20:42 10° NW visible
04 Mar 9.2 18:51:42 10° SSW 18:54:41 26° W 18:57:46 10° NW visible
05 Mar 9.9 06:15:01 10° NE 06:17:54 21° E 06:20:46 10° SE visible
